AAL2609 KSAT-KDFW

Flight info

Callsign AAL2609
Flight time 0h 39m
Altitude 29000
Route YODUH2 YODUH GUTZZ SHMPP3
Aircraft A320/M-SDE3FGHIRWY/LB1

Departure

Time 2026-05-07 20:09
Airport San Antonio International Airport (KSAT)

Arrival

Time 2026-05-07 20:48
Airport Dallas Fort Worth International Airport (KDFW)
Time Latitude Longitude Altitude Speed Heading
2026-05-07 19:30 29.52938 -98.47238 794 ft 0 kts 170°
2026-05-07 19:53 29.52942 -98.47239 796 ft 3 kts 169°
2026-05-07 19:53 29.52969 -98.47246 795 ft 4 kts 162°
2026-05-07 19:53 29.52994 -98.47257 795 ft 4 kts 144°
2026-05-07 19:54 29.53008 -98.47276 795 ft 4 kts 81°
2026-05-07 19:54 29.53005 -98.47286 795 ft 1 kts 60°
2026-05-07 19:54 29.53005 -98.47287 795 ft 0 kts 60°
2026-05-07 20:00 29.53008 -98.47281 794 ft 3 kts 60°
2026-05-07 20:00 29.53019 -98.47240 794 ft 7 kts 91°
2026-05-07 20:01 29.52985 -98.47183 795 ft 10 kts 132°
2026-05-07 20:01 29.52931 -98.47113 795 ft 13 kts 132°
2026-05-07 20:01 29.52863 -98.47027 795 ft 16 kts 132°
2026-05-07 20:01 29.52792 -98.46937 795 ft 16 kts 132°
2026-05-07 20:02 29.52719 -98.46842 795 ft 14 kts 131°
2026-05-07 20:02 29.52639 -98.46847 793 ft 14 kts 220°
2026-05-07 20:02 29.52559 -98.46926 793 ft 16 kts 220°
2026-05-07 20:02 29.52478 -98.47007 793 ft 13 kts 220°
2026-05-07 20:03 29.52433 -98.47050 793 ft 0 kts 220°
2026-05-07 20:04 29.52429 -98.47053 793 ft 2 kts 215°
2026-05-07 20:04 29.52413 -98.47060 793 ft 0 kts 192°
2026-05-07 20:07 29.52388 -98.47049 793 ft 10 kts 140°
2026-05-07 20:07 29.52342 -98.46975 793 ft 11 kts 90°
2026-05-07 20:07 29.52386 -98.46930 793 ft 0 kts 38°
2026-05-07 20:08 29.52428 -98.46889 793 ft 31 kts 41°
2026-05-07 20:08 29.52789 -98.46535 793 ft 101 kts 40°
2026-05-07 20:08 29.53466 -98.45883 851 ft 145 kts 40°
2026-05-07 20:09 29.54217 -98.45117 1465 ft 144 kts 41°
2026-05-07 20:09 29.54968 -98.44347 2164 ft 145 kts 41°
2026-05-07 20:09 29.55707 -98.43582 2683 ft 146 kts 45°
2026-05-07 20:10 29.57817 -98.42574 3224 ft 199 kts
2026-05-07 20:10 29.59292 -98.42539 3592 ft 224 kts
2026-05-07 20:10 29.60934 -98.42510 4066 ft 248 kts
2026-05-07 20:10 29.62720 -98.42480 4624 ft 269 kts
2026-05-07 20:11 29.64627 -98.42452 5478 ft 277 kts
2026-05-07 20:11 29.66576 -98.42421 6384 ft 282 kts
2026-05-07 20:11 29.68552 -98.42387 7242 ft 286 kts
2026-05-07 20:11 29.70565 -98.42346 8038 ft 292 kts 360°
2026-05-07 20:12 29.72617 -98.42303 8830 ft 298 kts
2026-05-07 20:12 29.74709 -98.42261 9631 ft 303 kts 358°
2026-05-07 20:12 29.76849 -98.42219 10269 ft 315 kts 359°
2026-05-07 20:12 29.79119 -98.42176 10555 ft 336 kts 358°
2026-05-07 20:13 29.81487 -98.42130 11145 ft 344 kts 358°
2026-05-07 20:13 29.83896 -98.42077 11856 ft 348 kts 358°
2026-05-07 20:13 29.86338 -98.41963 12533 ft 356 kts
2026-05-07 20:13 29.88821 -98.41637 13219 ft 362 kts
2026-05-07 20:14 29.91345 -98.41309 13915 ft 367 kts
2026-05-07 20:14 29.93894 -98.40983 14578 ft 370 kts
2026-05-07 20:14 29.96473 -98.40655 15241 ft 373 kts
2026-05-07 20:14 29.99032 -98.40329 15874 ft 377 kts
2026-05-07 20:15 30.01646 -98.39990 16517 ft 380 kts
2026-05-07 20:15 30.04287 -98.39646 17191 ft 383 kts
2026-05-07 20:15 30.06943 -98.39282 17847 ft 388 kts
2026-05-07 20:15 30.09606 -98.38568 18474 ft 396 kts
2026-05-07 20:16 30.12283 -98.37751 19039 ft 399 kts
2026-05-07 20:16 30.14980 -98.36930 19646 ft 402 kts
2026-05-07 20:16 30.17698 -98.36103 20228 ft 406 kts
2026-05-07 20:16 30.20444 -98.35270 20745 ft 411 kts
2026-05-07 20:17 30.23224 -98.34427 21247 ft 416 kts
2026-05-07 20:17 30.26042 -98.33572 21729 ft 422 kts
2026-05-07 20:17 30.27932 -98.32997 22053 ft 425 kts
2026-05-07 20:17 30.30813 -98.32120 22544 ft 430 kts
2026-05-07 20:18 30.33726 -98.31231 23037 ft 435 kts
2026-05-07 20:18 30.36669 -98.30332 23530 ft 440 kts
2026-05-07 20:18 30.39645 -98.29423 23977 ft 445 kts
2026-05-07 20:18 30.42653 -98.28499 24414 ft 448 kts
2026-05-07 20:19 30.45676 -98.27567 24860 ft 451 kts
2026-05-07 20:19 30.48719 -98.26629 25296 ft 454 kts
2026-05-07 20:19 30.51757 -98.25694 25719 ft 457 kts
2026-05-07 20:19 30.54850 -98.24746 26147 ft 460 kts
2026-05-07 20:20 30.57953 -98.23796 26571 ft 463 kts
2026-05-07 20:20 30.61085 -98.22837 26966 ft 466 kts
2026-05-07 20:20 30.64227 -98.21876 27381 ft 469 kts
2026-05-07 20:20 30.67393 -98.20905 27792 ft 472 kts
2026-05-07 20:21 30.70547 -98.19932 28227 ft 474 kts
2026-05-07 20:21 30.73750 -98.18941 28621 ft 477 kts
2026-05-07 20:21 30.76975 -98.17944 28991 ft 480 kts
2026-05-07 20:21 30.80211 -98.16948 29096 ft 477 kts
2026-05-07 20:22 30.83355 -98.15968 29118 ft 460 kts
2026-05-07 20:22 30.89462 -98.14068 29115 ft 451 kts
2026-05-07 20:23 30.95516 -98.12209 29121 ft 449 kts
2026-05-07 20:23 31.01524 -98.10361 29121 ft 449 kts
2026-05-07 20:24 31.07564 -98.08483 29131 ft 449 kts
2026-05-07 20:24 31.13589 -98.06612 29125 ft 449 kts
2026-05-07 20:25 31.19663 -98.05160 29122 ft 435 kts 354°
2026-05-07 20:25 31.22616 -98.05228 29121 ft 424 kts 343°
2026-05-07 20:25 31.25477 -98.05846 29122 ft 412 kts 334°
2026-05-07 20:25 31.28174 -98.06957 29152 ft 401 kts 326°
2026-05-07 20:26 31.30679 -98.08284 29137 ft 401 kts 326°
2026-05-07 20:26 31.35797 -98.11001 29109 ft 403 kts 326°
2026-05-07 20:27 31.41168 -98.13178 29098 ft 420 kts 342°
2026-05-07 20:27 31.44133 -98.13402 29101 ft 433 kts 354°
2026-05-07 20:27 31.47134 -98.13031 29104 ft 439 kts 359°
2026-05-07 20:28 31.53209 -98.12107 29103 ft 440 kts 359°
2026-05-07 20:28 31.59280 -98.11185 29117 ft 440 kts 359°
2026-05-07 20:29 31.65347 -98.09803 29143 ft 462 kts 13°
2026-05-07 20:29 31.68305 -98.08225 28706 ft 472 kts 24°
2026-05-07 20:29 31.71141 -98.06274 28144 ft 471 kts 25°
2026-05-07 20:29 31.73950 -98.04323 27670 ft 466 kts 25°
2026-05-07 20:30 31.76729 -98.02398 27226 ft 462 kts 25°
2026-05-07 20:30 31.79487 -98.00494 26805 ft 457 kts 24°
2026-05-07 20:30 31.82180 -97.98642 26403 ft 453 kts 24°
2026-05-07 20:30 31.84902 -97.96773 26003 ft 450 kts 23°
2026-05-07 20:31 31.87596 -97.94927 25623 ft 445 kts 23°
2026-05-07 20:31 31.90279 -97.93126 25269 ft 440 kts 22°
2026-05-07 20:31 31.92936 -97.91374 24926 ft 436 kts 22°
2026-05-07 20:31 31.95578 -97.89651 24586 ft 431 kts 21°
2026-05-07 20:32 31.98193 -97.87949 24264 ft 428 kts 21°
2026-05-07 20:32 32.00747 -97.86281 23933 ft 424 kts 21°
2026-05-07 20:32 32.03311 -97.84600 23582 ft 420 kts 21°
2026-05-07 20:32 32.05857 -97.82921 23163 ft 416 kts 22°
2026-05-07 20:33 32.08375 -97.81252 22721 ft 413 kts 22°
2026-05-07 20:33 32.10863 -97.79595 22296 ft 410 kts 22°
2026-05-07 20:33 32.13347 -97.77940 21817 ft 408 kts 22°
2026-05-07 20:33 32.15814 -97.76299 21352 ft 405 kts 22°
2026-05-07 20:34 32.18261 -97.74677 20910 ft 402 kts 22°
2026-05-07 20:34 32.20692 -97.73060 20456 ft 399 kts 23°
2026-05-07 20:34 32.23096 -97.71453 19884 ft 393 kts 23°
2026-05-07 20:34 32.25482 -97.69923 19080 ft 387 kts 21°
2026-05-07 20:35 32.27863 -97.68490 18309 ft 381 kts 21°
2026-05-07 20:35 32.30230 -97.67119 17457 ft 376 kts 20°
2026-05-07 20:35 32.32545 -97.65797 16648 ft 372 kts 20°
2026-05-07 20:35 32.34899 -97.64445 16153 ft 370 kts 20°
2026-05-07 20:36 32.37179 -97.63109 15666 ft 370 kts 23°
2026-05-07 20:36 32.39317 -97.61322 15183 ft 377 kts 39°
2026-05-07 20:36 32.41161 -97.59188 14893 ft 371 kts 40°
2026-05-07 20:36 32.43005 -97.57062 14462 ft 369 kts 40°
2026-05-07 20:37 32.44849 -97.54952 14063 ft 367 kts 39°
2026-05-07 20:37 32.46680 -97.52864 13631 ft 364 kts 39°
2026-05-07 20:37 32.48499 -97.50790 13196 ft 362 kts 41°
2026-05-07 20:37 32.50059 -97.48472 12584 ft 360 kts 57°
2026-05-07 20:38 32.51021 -97.45741 11899 ft 363 kts 76°
2026-05-07 20:38 32.51373 -97.42807 11524 ft 359 kts 84°
2026-05-07 20:38 32.51664 -97.39868 11215 ft 354 kts 81°
2026-05-07 20:38 32.52132 -97.37056 11091 ft 343 kts 76°
2026-05-07 20:39 32.52708 -97.34345 10848 ft 336 kts 74°
2026-05-07 20:39 32.53340 -97.31686 10535 ft 333 kts 73°
2026-05-07 20:39 32.53983 -97.29062 10183 ft 329 kts 73°
2026-05-07 20:39 32.54612 -97.26474 9562 ft 325 kts 73°
2026-05-07 20:40 32.55220 -97.23907 8945 ft 321 kts 73°
2026-05-07 20:40 32.55798 -97.21407 8351 ft 316 kts 73°
2026-05-07 20:40 32.56364 -97.18914 7752 ft 311 kts 73°
2026-05-07 20:40 32.56916 -97.16453 7158 ft 306 kts 73°
2026-05-07 20:41 32.57453 -97.14035 6616 ft 301 kts 73°
2026-05-07 20:41 32.57981 -97.11659 6048 ft 295 kts 73°
2026-05-07 20:41 32.58526 -97.09346 5508 ft 286 kts 66°
2026-05-07 20:41 32.59539 -97.07396 5010 ft 272 kts 43°
2026-05-07 20:42 32.61036 -97.06118 4463 ft 263 kts 22°
2026-05-07 20:42 32.62789 -97.05614 3870 ft 259 kts
2026-05-07 20:42 32.64524 -97.05627 3698 ft 240 kts
2026-05-07 20:42 32.66123 -97.05625 3578 ft 219 kts
2026-05-07 20:43 32.67608 -97.05611 3512 ft 208 kts
2026-05-07 20:43 32.69016 -97.05588 3418 ft 198 kts
2026-05-07 20:43 32.70372 -97.05575 3333 ft 192 kts
2026-05-07 20:43 32.71699 -97.05567 3251 ft 190 kts
2026-05-07 20:44 32.73005 -97.05560 3161 ft 189 kts
2026-05-07 20:44 32.74329 -97.05553 3091 ft 190 kts
2026-05-07 20:44 32.75641 -97.05546 3003 ft 187 kts
2026-05-07 20:44 32.76940 -97.05540 2742 ft 183 kts
2026-05-07 20:45 32.78174 -97.05534 2510 ft 171 kts
2026-05-07 20:45 32.79319 -97.05529 2291 ft 157 kts
2026-05-07 20:45 32.80353 -97.05524 2102 ft 142 kts
2026-05-07 20:45 32.81326 -97.05518 1908 ft 137 kts
2026-05-07 20:46 32.82275 -97.05513 1731 ft 136 kts
2026-05-07 20:46 32.83213 -97.05508 1546 ft 135 kts
2026-05-07 20:46 32.84156 -97.05503 1367 ft 136 kts
2026-05-07 20:46 32.85100 -97.05498 1192 ft 134 kts
2026-05-07 20:47 32.86017 -97.05493 1027 ft 132 kts
2026-05-07 20:47 32.86933 -97.05491 863 ft 132 kts
2026-05-07 20:47 32.87854 -97.05485 661 ft 132 kts
2026-05-07 20:47 32.88715 -97.05480 594 ft 109 kts
2026-05-07 20:48 32.89302 -97.05472 600 ft 59 kts
2026-05-07 20:48 32.89597 -97.05473 603 ft 37 kts 360°
2026-05-07 20:48 32.89822 -97.05471 613 ft 22 kts
2026-05-07 20:48 32.89930 -97.05410 616 ft 18 kts 30°
2026-05-07 20:49 32.90040 -97.05336 609 ft 17 kts 29°
2026-05-07 20:49 32.90116 -97.05236 601 ft 15 kts 81°
2026-05-07 20:49 32.90115 -97.05089 599 ft 20 kts 89°
2026-05-07 20:49 32.90117 -97.04950 599 ft 15 kts 89°
2026-05-07 20:50 32.90119 -97.04814 598 ft 18 kts 89°
2026-05-07 20:50 32.90069 -97.04760 598 ft 12 kts 184°
2026-05-07 20:50 32.89980 -97.04764 599 ft 14 kts 181°
2026-05-07 20:50 32.89877 -97.04767 598 ft 14 kts 182°
2026-05-07 20:51 32.89779 -97.04766 597 ft 16 kts 178°
2026-05-07 20:51 32.89664 -97.04762 598 ft 15 kts 177°
2026-05-07 20:51 32.89602 -97.04693 598 ft 10 kts 103°
2026-05-07 20:51 32.89594 -97.04641 598 ft 1 kts 99°
2026-05-07 20:52 32.89587 -97.04621 598 ft 5 kts 111°
2026-05-07 20:52 32.89585 -97.04579 598 ft 3 kts 90°
2026-05-07 20:52 32.89584 -97.04568 598 ft 0 kts 90°